#�ϑ�����,���ϕ���,���ϕ���,�ő啗��,�ő啗����������,�ő�u�ԕ���,�ő�u�ԕ�����������
#(�N����),(m/s)   ,(16����),(m/s)   ,(16����)        ,(m/s)       ,(16����)            
2018/9/10 0:01,1.4,2,1.5,3,2.6,3
2018/9/10 0:02,1.4,2,1.4,3,2.5,3
2018/9/10 0:03,1.4,2,1.4,3,1.6,3
2018/9/10 0:04,1.4,2,1.4,2,2.7,3
2018/9/10 0:05,1.5,2,1.5,2,2.7,1
2018/9/10 0:06,1.5,2,1.6,2,3.1,3
2018/9/10 0:07,1.5,2,1.6,2,2.7,2
2018/9/10 0:08,1.5,2,1.6,2,2.5,2
2018/9/10 0:09,1.5,2,1.5,2,2.7,3
2018/9/10 0:10,1.6,2,1.6,2,2.9,3
2018/9/10 0:11,1.6,2,1.6,2,2.1,4
2018/9/10 0:12,1.7,2,1.7,2,2.2,2
2018/9/10 0:13,1.8,2,1.8,2,2.5,2
2018/9/10 0:14,1.8,2,1.8,2,2.4,3
2018/9/10 0:15,1.8,3,1.8,2,1.9,4
2018/9/10 0:16,1.6,3,1.8,2,1,3
2018/9/10 0:17,1.6,3,1.6,2,2.1,2
2018/9/10 0:18,1.6,3,1.6,2,1.9,3
2018/9/10 0:19,1.6,3,1.6,2,1.9,3
2018/9/10 0:20,1.4,3,1.5,2,1.4,3
2018/9/10 0:21,1.3,3,1.4,2,1.4,4
2018/9/10 0:22,1.1,3,1.3,2,0.6,2
2018/9/10 0:23,1,3,1.1,2,1,4
2018/9/10 0:24,0.9,3,1,2,0.5,5
2018/9/10 0:25,0.7,3,0.8,3,0.4,3
2018/9/10 0:26,0.7,3,0.7,3,0.3,4
2018/9/10 0:27,0.5,3,0.7,3,0.1,2
2018/9/10 0:28,0.4,3,0.5,3,0.6,1
2018/9/10 0:29,0.3,3,0.4,3,0.5,1
2018/9/10 0:30,0.2,2,0.3,3,0.1,1
2018/9/10 0:31,0.2,2,0.2,3,0.9,14
2018/9/10 0:32,0.2,2,0.2,3,0.8,14
2018/9/10 0:33,0.2,1,0.2,3,0.6,15
2018/9/10 0:34,0.2,1,0.2,3,0.8,2
2018/9/10 0:35,0.2,1,0.2,3,1.1,2
2018/9/10 0:36,0.3,1,0.3,3,0.8,16
2018/9/10 0:37,0.3,16,0.3,3,0.6,16
2018/9/10 0:38,0.3,16,0.3,3,0.4,16
2018/9/10 0:39,0.3,16,0.3,3,0.6,16
2018/9/10 0:40,0.4,16,0.4,16,0.5,16
2018/9/10 0:41,0.4,16,0.4,16,0.5,16
2018/9/10 0:42,0.4,16,0.4,16,0.5,15
2018/9/10 0:43,0.4,16,0.4,16,0.6,16
2018/9/10 0:44,0.3,16,0.4,16,0.6,16
2018/9/10 0:45,0.3,16,0.3,16,0.6,14
2018/9/10 0:46,0.3,16,0.3,16,0.3,16
2018/9/10 0:47,0.3,16,0.3,16,0.6,15
2018/9/10 0:48,0.3,16,0.3,16,1.3,16
2018/9/10 0:49,0.4,16,0.4,16,1.4,16
2018/9/10 0:50,0.4,16,0.4,16,1.3,15
2018/9/10 0:51,0.5,16,0.5,16,1.1,15
2018/9/10 0:52,0.6,15,0.6,15,1.1,15
2018/9/10 0:53,0.6,15,0.6,15,0.9,15
2018/9/10 0:54,0.6,15,0.6,15,0.8,15
2018/9/10 0:55,0.6,15,0.6,15,0.6,15
2018/9/10 0:56,0.7,15,0.7,15,0.5,15
2018/9/10 0:57,0.7,15,0.7,15,0.3,16
2018/9/10 0:58,0.6,15,0.6,15,0.5,15
2018/9/10 0:59,0.5,15,0.6,15,0.3,15
2018/9/10 1:00,0.4,15,0.5,15,0,15
2018/9/10 1:01,0.3,15,0.4,15,0.8,8
2018/9/10 1:02,0.3,14,0.3,15,1,8
2018/9/10 1:03,0.3,14,0.3,15,0.4,9
2018/9/10 1:04,0.3,13,0.3,15,0.5,10
2018/9/10 1:05,0.3,12,0.3,15,0.5,10
2018/9/10 1:06,0.2,11,0.3,15,0.4,10
2018/9/10 1:07,0.2,10,0.2,15,0.1,9
2018/9/10 1:08,0.2,10,0.2,15,0.3,8
2018/9/10 1:09,0.2,9,0.2,15,0.5,8
2018/9/10 1:10,0.2,9,0.2,15,0.5,7
2018/9/10 1:11,0.3,8,0.3,15,0.5,8
2018/9/10 1:12,0.2,8,0.3,14,0.6,9
2018/9/10 1:13,0.2,8,0.2,14,0.3,6
2018/9/10 1:14,0.2,8,0.2,13,0.1,6
2018/9/10 1:15,0.2,7,0.2,12,0.1,7
2018/9/10 1:16,0.1,7,0.1,9,0.1,7
2018/9/10 1:17,0.1,7,0.1,9,0,8
2018/9/10 1:18,0.1,7,0.1,9,0,6
2018/9/10 1:19,0.1,7,0.1,9,0,5
2018/9/10 1:20,0.1,6,0.1,9,0.1,5
2018/9/10 1:21,0.1,6,0.1,8,0.1,5
2018/9/10 1:22,0,6,0,8,0,5
2018/9/10 1:23,0,6,0,8,0.1,5
2018/9/10 1:24,0,6,0,8,0.5,8
2018/9/10 1:25,0,6,0,7,0.9,8
2018/9/10 1:26,0.1,6,0.1,7,1.5,8
2018/9/10 1:27,0.2,6,0.2,6,1.8,5
2018/9/10 1:28,0.3,6,0.3,6,1.4,7
2018/9/10 1:29,0.4,7,0.4,6,1,7
2018/9/10 1:30,0.5,7,0.5,7,1,8
2018/9/10 1:31,0.5,7,0.5,7,0.8,7
2018/9/10 1:32,0.6,7,0.6,7,1,6
2018/9/10 1:33,0.7,7,0.7,7,1.3,5
2018/9/10 1:34,0.7,6,0.7,7,0.8,6
2018/9/10 1:35,0.7,6,0.7,7,0.3,5
2018/9/10 1:36,0.6,6,0.7,7,0.4,4
2018/9/10 1:37,0.5,6,0.6,7,0.8,6
2018/9/10 1:38,0.5,6,0.5,7,0.9,6
2018/9/10 1:39,0.5,6,0.5,7,0.6,4
2018/9/10 1:40,0.5,5,0.5,7,0.8,5
2018/9/10 1:41,0.5,5,0.5,7,0.9,6
2018/9/10 1:42,0.5,5,0.5,7,1.3,6
2018/9/10 1:43,0.5,6,0.5,7,1.1,6
2018/9/10 1:44,0.5,6,0.5,6,1.4,6
2018/9/10 1:45,0.6,6,0.6,6,1.4,5
2018/9/10 1:46,0.7,6,0.7,6,1.4,5
2018/9/10 1:47,0.7,6,0.7,6,1.1,5
2018/9/10 1:48,0.7,6,0.7,6,0.8,6
2018/9/10 1:49,0.7,5,0.7,6,0.5,3
2018/9/10 1:50,0.6,5,0.7,6,0.1,16
2018/9/10 1:51,0.6,5,0.6,6,0.3,1
2018/9/10 1:52,0.5,4,0.5,6,0.4,16
2018/9/10 1:53,0.5,3,0.5,6,0.8,2
2018/9/10 1:54,0.5,3,0.5,6,1,2
2018/9/10 1:55,0.4,3,0.5,6,1,3
2018/9/10 1:56,0.4,2,0.4,6,1,3
2018/9/10 1:57,0.4,2,0.4,6,1,3
2018/9/10 1:58,0.5,2,0.5,6,1.5,3
2018/9/10 1:59,0.6,2,0.6,5,1.5,3
2018/9/10 2:00,0.6,2,0.6,5,1.4,3
2018/9/10 2:01,0.7,2,0.7,2,1.3,3
2018/9/10 2:02,0.8,2,0.8,2,1,1
2018/9/10 2:03,0.8,2,0.8,2,0.8,16
2018/9/10 2:04,0.8,2,0.8,2,1,1
2018/9/10 2:05,0.7,2,0.8,2,0.8,16
2018/9/10 2:06,0.7,2,0.7,2,0.9,15
2018/9/10 2:07,0.7,1,0.7,2,1,1
2018/9/10 2:08,0.6,1,0.7,2,1.1,15
2018/9/10 2:09,0.6,1,0.6,2,1,15
2018/9/10 2:10,0.6,1,0.6,2,0.9,16
2018/9/10 2:11,0.6,1,0.6,2,1.4,2
2018/9/10 2:12,0.7,1,0.7,2,2,2
2018/9/10 2:13,0.8,1,0.8,2,2,1
2018/9/10 2:14,0.8,1,0.8,2,1.8,1
2018/9/10 2:15,0.9,1,0.9,1,1.1,1
2018/9/10 2:16,0.8,1,0.9,1,1.3,1
2018/9/10 2:17,0.9,1,0.9,1,1.6,1
2018/9/10 2:18,0.9,1,0.9,1,2,16
2018/9/10 2:19,1,1,1,1,1.9,15
2018/9/10 2:20,1,1,1,1,1.5,16
2018/9/10 2:21,1,1,1,1,2,1
2018/9/10 2:22,1,16,1,1,2,1
2018/9/10 2:23,1,16,1,1,1.8,1
2018/9/10 2:24,1,16,1,1,1.6,1
2018/9/10 2:25,1,16,1,1,1.6,1
2018/9/10 2:26,1,1,1.1,1,1,16
2018/9/10 2:27,1,1,1,1,1,1
2018/9/10 2:28,0.9,1,1,1,0.1,1
2018/9/10 2:29,0.8,1,0.9,1,0.8,15
2018/9/10 2:30,0.8,1,0.8,1,0.8,4
2018/9/10 2:31,0.6,1,0.8,1,0.4,4
2018/9/10 2:32,0.6,1,0.6,1,0.8,16
2018/9/10 2:33,0.5,1,0.6,1,1.3,16
2018/9/10 2:34,0.5,1,0.5,1,1.1,16
2018/9/10 2:35,0.5,1,0.5,1,1.3,16
2018/9/10 2:36,0.5,16,0.5,1,1.3,16
2018/9/10 2:37,0.6,16,0.6,1,1.3,16
2018/9/10 2:38,0.7,16,0.7,1,1.4,15
2018/9/10 2:39,0.7,16,0.7,1,1,16
2018/9/10 2:40,0.8,16,0.8,1,1.3,16
2018/9/10 2:41,0.8,16,0.8,16,1.3,15
2018/9/10 2:42,0.9,16,0.9,16,1.3,15
2018/9/10 2:43,0.9,16,0.9,16,0.9,15
2018/9/10 2:44,0.8,15,0.9,16,1.3,15
2018/9/10 2:45,0.8,15,0.8,16,1,15
2018/9/10 2:46,0.8,15,0.8,16,1.3,15
2018/9/10 2:47,0.8,15,0.8,16,1.3,16
2018/9/10 2:48,0.9,15,0.9,16,1.8,16
2018/9/10 2:49,0.9,15,0.9,16,1.6,16
2018/9/10 2:50,0.9,16,0.9,16,1.5,16
2018/9/10 2:51,1,16,1,16,1.6,16
2018/9/10 2:52,1,16,1,16,1.4,15
2018/9/10 2:53,1,16,1,16,1.4,15
2018/9/10 2:54,1,16,1,16,1.3,16
2018/9/10 2:55,1.1,16,1.1,16,1.4,15
2018/9/10 2:56,1.1,16,1.1,16,1.3,15
2018/9/10 2:57,1.1,16,1.1,16,1.3,15
2018/9/10 2:58,1,15,1.1,16,1.3,15
2018/9/10 2:59,1,15,1,16,1.4,15
2018/9/10 3:00,1,15,1,16,1.4,16
2018/9/10 3:01,1,15,1,16,1.4,16
2018/9/10 3:02,1,15,1,16,1.8,16
2018/9/10 3:03,1,15,1,16,1.4,16
2018/9/10 3:04,1,15,1,16,1,16
2018/9/10 3:05,0.9,15,1,16,0.9,15
2018/9/10 3:06,0.9,15,0.9,16,0.8,15
2018/9/10 3:07,0.8,15,0.9,15,0.8,16
2018/9/10 3:08,0.7,15,0.8,15,0.4,14
2018/9/10 3:09,0.6,15,0.7,15,0.1,14
2018/9/10 3:10,0.5,15,0.6,15,0,15
2018/9/10 3:11,0.4,15,0.5,15,0.1,6
2018/9/10 3:12,0.3,14,0.4,15,0,7
2018/9/10 3:13,0.2,13,0.3,15,0,7
2018/9/10 3:14,0.1,10,0.2,15,0,7
2018/9/10 3:15,0.1,9,0.1,15,0.1,12
2018/9/10 3:16,0,10,0.1,15,0,12
2018/9/10 3:17,0,10,0,15,0,12
2018/9/10 3:18,0,9,0,15,0,12
2018/9/10 3:19,0,9,0,15,0.1,1
2018/9/10 3:20,0.1,9,0.1,15,0.9,1
2018/9/10 3:21,0.1,13,0.1,15,0.9,16
2018/9/10 3:22,0.2,15,0.2,14,0.9,16
2018/9/10 3:23,0.3,15,0.3,15,0.9,16
2018/9/10 3:24,0.3,15,0.3,15,1.1,1
2018/9/10 3:25,0.4,16,0.4,15,1.1,16
2018/9/10 3:26,0.5,16,0.5,16,1.1,1
2018/9/10 3:27,0.6,1,0.6,16,1.1,1
2018/9/10 3:28,0.7,1,0.7,1,1,16
2018/9/10 3:29,0.8,1,0.8,1,1,1
2018/9/10 3:30,0.8,1,0.8,1,0.8,16
2018/9/10 3:31,0.8,1,0.8,1,1,1
2018/9/10 3:32,0.8,1,0.8,1,1,1
2018/9/10 3:33,0.8,1,0.8,1,0.9,1
2018/9/10 3:34,0.7,1,0.8,1,0.9,2
2018/9/10 3:35,0.7,1,0.8,1,1,1
2018/9/10 3:36,0.7,1,0.7,1,0.9,1
2018/9/10 3:37,0.7,1,0.7,1,1.1,1
2018/9/10 3:38,0.8,1,0.8,1,1.3,1
2018/9/10 3:39,0.8,1,0.8,1,1.3,1
2018/9/10 3:40,0.8,1,0.8,1,1.1,1
2018/9/10 3:41,0.8,1,0.8,1,1.3,1
2018/9/10 3:42,0.9,1,0.9,1,1.5,16
2018/9/10 3:43,0.9,1,0.9,1,1.3,16
2018/9/10 3:44,0.9,1,0.9,1,1.1,16
2018/9/10 3:45,1,1,1,1,1.4,16
2018/9/10 3:46,1,16,1,1,1.4,16
2018/9/10 3:47,1,16,1,1,1.5,1
2018/9/10 3:48,1,16,1,1,1.4,1
2018/9/10 3:49,1,16,1,1,1.4,16
2018/9/10 3:50,1,16,1,1,1.6,1
2018/9/10 3:51,1.1,16,1.1,16,1.6,1
2018/9/10 3:52,1.1,16,1.1,16,1.8,16
2018/9/10 3:53,1.1,16,1.1,16,1.6,16
2018/9/10 3:54,1.2,16,1.2,16,1.6,16
2018/9/10 3:55,1.2,16,1.2,16,1.5,15
2018/9/10 3:56,1.2,16,1.2,16,1.6,15
2018/9/10 3:57,1.2,16,1.2,16,1.4,15
2018/9/10 3:58,1.2,16,1.2,16,1.6,1
2018/9/10 3:59,1.2,16,1.2,16,1.6,16
2018/9/10 4:00,1.2,16,1.2,16,1.5,16
2018/9/10 4:01,1.2,16,1.2,16,1.6,16
2018/9/10 4:02,1.2,16,1.2,16,1.5,16
2018/9/10 4:03,1.2,16,1.2,16,1.4,16
2018/9/10 4:04,1.1,16,1.2,16,1.3,16
2018/9/10 4:05,1.1,16,1.1,16,1.1,16
2018/9/10 4:06,1,16,1.1,16,1.1,16
2018/9/10 4:07,1.1,16,1.1,16,0.9,16
2018/9/10 4:08,1,16,1.1,16,0.9,16
2018/9/10 4:09,0.9,16,1,16,0.8,16
2018/9/10 4:10,0.9,16,0.9,16,0.9,16
2018/9/10 4:11,0.9,16,0.9,16,1,16
2018/9/10 4:12,0.8,16,0.9,16,0.9,16
2018/9/10 4:13,0.8,16,0.8,16,1,16
2018/9/10 4:14,0.8,16,0.8,16,1.1,16
2018/9/10 4:15,0.8,16,0.8,16,1,15
2018/9/10 4:16,0.7,16,0.7,16,1.1,1
2018/9/10 4:17,0.7,16,0.7,16,1.1,16
2018/9/10 4:18,0.7,16,0.7,16,1,15
2018/9/10 4:19,0.7,15,0.7,16,0.8,15
2018/9/10 4:20,0.6,15,0.7,16,0.8,16
2018/9/10 4:21,0.6,15,0.6,16,0.6,15
2018/9/10 4:22,0.5,15,0.6,16,0.1,14
2018/9/10 4:23,0.4,15,0.5,16,0.1,7
2018/9/10 4:24,0.3,15,0.4,16,0.1,7
2018/9/10 4:25,0.3,14,0.3,16,0.1,7
2018/9/10 4:26,0.3,13,0.3,16,0.8,8
2018/9/10 4:27,0.3,11,0.3,16,0.8,8
2018/9/10 4:28,0.2,9,0.3,16,0.6,9
2018/9/10 4:29,0.2,9,0.2,15,0.4,8
2018/9/10 4:30,0.2,8,0.2,15,0.1,5
2018/9/10 4:31,0.2,8,0.2,15,0.1,6
2018/9/10 4:32,0.2,7,0.2,15,0.3,4
2018/9/10 4:33,0.2,7,0.2,15,0.6,3
2018/9/10 4:34,0.2,6,0.2,15,0.4,15
2018/9/10 4:35,0.2,6,0.2,14,0.3,1
2018/9/10 4:36,0.2,5,0.2,13,0.3,16
2018/9/10 4:37,0.2,3,0.2,11,0.8,16
2018/9/10 4:38,0.2,2,0.2,9,0.9,1
2018/9/10 4:39,0.2,1,0.2,9,0.8,15
2018/9/10 4:40,0.2,1,0.2,8,0.5,15
2018/9/10 4:41,0.2,16,0.2,8,0.1,14
2018/9/10 4:42,0.2,16,0.2,7,0.1,15
2018/9/10 4:43,0.2,16,0.2,7,0.3,14
2018/9/10 4:44,0.2,15,0.2,6,0.8,14
2018/9/10 4:45,0.3,15,0.3,15,0.9,14
2018/9/10 4:46,0.3,15,0.3,15,1.4,14
2018/9/10 4:47,0.5,15,0.5,15,2.5,15
2018/9/10 4:48,0.7,15,0.7,15,3,15
2018/9/10 4:49,0.9,15,0.9,15,2.9,14
2018/9/10 4:50,1.1,15,1.1,15,2.5,15
2018/9/10 4:51,1.3,15,1.3,15,1.9,15
2018/9/10 4:52,1.3,15,1.3,15,1.4,15
2018/9/10 4:53,1.4,15,1.4,15,0.9,11
2018/9/10 4:54,1.4,14,1.4,15,1.6,13
2018/9/10 4:55,1.5,14,1.5,14,1.3,12
2018/9/10 4:56,1.4,14,1.5,14,1.4,10
2018/9/10 4:57,1.2,14,1.4,14,0.8,12
2018/9/10 4:58,1,13,1.2,14,0.4,12
2018/9/10 4:59,0.7,13,1,14,0.3,6
2018/9/10 5:00,0.5,13,0.7,14,0.1,6
2018/9/10 5:01,0.4,13,0.5,14,0.6,15
2018/9/10 5:02,0.4,12,0.4,14,0.6,12
2018/9/10 5:03,0.3,12,0.4,14,0.8,12
2018/9/10 5:04,0.2,12,0.3,14,0.1,12
2018/9/10 5:05,0.2,12,0.2,14,0.6,4
2018/9/10 5:06,0.2,13,0.2,14,0.8,3
2018/9/10 5:07,0.2,14,0.2,14,0.8,3
2018/9/10 5:08,0.2,16,0.2,13,0.5,1
2018/9/10 5:09,0.2,16,0.3,13,0.4,2
2018/9/10 5:10,0.3,16,0.3,13,0.1,4
2018/9/10 5:11,0.3,1,0.3,13,0.5,1
2018/9/10 5:12,0.2,1,0.3,12,0.1,2
2018/9/10 5:13,0.2,2,0.2,12,0.1,1
2018/9/10 5:14,0.2,2,0.2,16,0.1,1
2018/9/10 5:15,0.2,1,0.2,16,0.6,12
2018/9/10 5:16,0.2,1,0.2,16,0.9,11
2018/9/10 5:17,0.2,16,0.2,16,0.5,11
2018/9/10 5:18,0.2,16,0.2,16,0.6,11
2018/9/10 5:19,0.2,15,0.2,16,0.9,11
2018/9/10 5:20,0.3,14,0.3,16,0.8,11
2018/9/10 5:21,0.3,12,0.3,1,0.8,11
2018/9/10 5:22,0.3,12,0.3,14,0.8,10
2018/9/10 5:23,0.4,11,0.4,12,0.9,10
2018/9/10 5:24,0.4,11,0.4,12,0.1,6
2018/9/10 5:25,0.4,10,0.4,12,0.1,8
2018/9/10 5:26,0.3,10,0.4,12,0.1,10
2018/9/10 5:27,0.3,10,0.3,12,1,10
2018/9/10 5:28,0.4,10,0.4,12,1,10
2018/9/10 5:29,0.4,10,0.4,12,1.1,9
2018/9/10 5:30,0.3,9,0.4,12,0.8,8
2018/9/10 5:31,0.3,9,0.3,12,0.8,10
2018/9/10 5:32,0.3,9,0.3,12,1.1,9
2018/9/10 5:33,0.4,9,0.4,11,1.1,9
2018/9/10 5:34,0.4,9,0.4,10,0.8,9
2018/9/10 5:35,0.4,9,0.4,10,0.1,6
2018/9/10 5:36,0.4,10,0.4,10,0.1,12
2018/9/10 5:37,0.3,10,0.4,10,0.1,12
2018/9/10 5:38,0.3,10,0.3,10,0.4,16
2018/9/10 5:39,0.2,11,0.2,9,0.3,16
2018/9/10 5:40,0.2,11,0.2,9,0.1,16
2018/9/10 5:41,0.2,12,0.2,9,0.3,15
2018/9/10 5:42,0.1,13,0.1,9,0.4,16
2018/9/10 5:43,0,14,0.1,9,0.3,2
2018/9/10 5:44,0,15,0,9,0.1,1
2018/9/10 5:45,0,15,0,9,0.1,16
2018/9/10 5:46,0,16,0,10,0.3,16
2018/9/10 5:47,0,16,0,10,0.4,16
2018/9/10 5:48,0.1,16,0.1,10,0.8,16
2018/9/10 5:49,0.1,16,0.1,11,0.4,1
2018/9/10 5:50,0.1,16,0.1,12,0.6,2
2018/9/10 5:51,0.2,1,0.2,1,0.8,2
2018/9/10 5:52,0.2,1,0.2,1,0.3,2
2018/9/10 5:53,0.2,1,0.2,1,0.1,3
2018/9/10 5:54,0.2,1,0.2,1,1,8
2018/9/10 5:55,0.3,2,0.3,2,1.1,7
2018/9/10 5:56,0.3,3,0.3,2,0.9,9
2018/9/10 5:57,0.4,4,0.4,4,0.9,7
2018/9/10 5:58,0.3,5,0.4,4,0.8,8
2018/9/10 5:59,0.3,5,0.3,4,1.3,1
2018/9/10 6:00,0.5,5,0.5,5,1.8,1
2018/9/10 6:01,0.4,6,0.5,5,1.3,1
2018/9/10 6:02,0.5,7,0.5,5,1.9,10
2018/9/10 6:03,0.6,8,0.6,7,1.5,12
2018/9/10 6:04,0.6,6,0.6,7,1,1
2018/9/10 6:05,0.5,2,0.6,7,0.4,2
2018/9/10 6:06,0.5,1,0.5,7,1.8,9
2018/9/10 6:07,0.5,16,0.6,7,2.1,10
2018/9/10 6:08,0.6,14,0.6,7,1.8,9
2018/9/10 6:09,0.7,12,0.7,12,1.6,8
2018/9/10 6:10,0.6,10,0.7,12,1.3,8
2018/9/10 6:11,0.6,10,0.6,12,1,7
2018/9/10 6:12,0.7,9,0.7,12,2.7,9
2018/9/10 6:13,0.8,8,0.8,8,3.1,8
2018/9/10 6:14,0.8,8,0.8,8,2.4,7
2018/9/10 6:15,1,8,1,8,2.7,3
2018/9/10 6:16,1.1,8,1.1,8,2.6,7
2018/9/10 6:17,1.3,7,1.3,7,3.7,5
2018/9/10 6:18,1.4,7,1.4,7,2.7,16
2018/9/10 6:19,1.4,7,1.4,7,2.6,3
2018/9/10 6:20,1.4,7,1.4,7,1.6,15
2018/9/10 6:21,1.4,6,1.5,6,1.9,16
2018/9/10 6:22,1.3,6,1.4,6,0.6,15
2018/9/10 6:23,1.2,6,1.3,6,0.8,9
2018/9/10 6:24,1.2,7,1.2,6,2.9,8
2018/9/10 6:25,1.3,9,1.3,6,4.4,8
2018/9/10 6:26,1.2,11,1.3,6,2.7,10
2018/9/10 6:27,1.1,11,1.2,6,2.1,8
2018/9/10 6:28,0.9,11,1.1,6,0.5,11
2018/9/10 6:29,0.9,11,0.9,6,1,12
2018/9/10 6:30,0.9,11,0.9,6,1.4,12
2018/9/10 6:31,0.9,11,0.9,6,1.4,12
2018/9/10 6:32,1,11,1,6,1.3,16
2018/9/10 6:33,1,12,1,8,1.4,15
2018/9/10 6:34,1,12,1.1,8,3.8,15
2018/9/10 6:35,1,13,1,10,1.3,12
2018/9/10 6:36,0.8,12,0.9,11,1,10
2018/9/10 6:37,0.9,13,0.9,11,2.5,3
2018/9/10 6:38,0.9,14,0.9,12,2.7,4
2018/9/10 6:39,0.9,14,0.9,12,1.4,5
2018/9/10 6:40,1,15,1,12,2.9,8
2018/9/10 6:41,0.9,2,1,12,1.4,13
2018/9/10 6:42,0.9,2,0.9,12,1.4,15
2018/9/10 6:43,0.9,5,0.9,12,1,2
2018/9/10 6:44,0.8,6,0.9,12,0.6,16
2018/9/10 6:45,0.8,4,0.8,14,1.8,16
2018/9/10 6:46,0.8,1,0.8,14,1.1,15
2018/9/10 6:47,0.8,16,0.9,14,2.2,16
2018/9/10 6:48,0.8,16,0.8,14,1.9,16
2018/9/10 6:49,0.9,16,0.9,14,2,1
2018/9/10 6:50,0.8,16,0.9,16,1.5,8
2018/9/10 6:51,1,15,1,15,2.9,14
2018/9/10 6:52,1.1,16,1.1,16,3.3,1
2018/9/10 6:53,1.2,15,1.2,15,3.8,1
2018/9/10 6:54,1.5,16,1.5,16,6,16
2018/9/10 6:55,1.8,16,1.8,16,5.6,1
2018/9/10 6:56,2,16,2,16,6.3,3
2018/9/10 6:57,2.3,16,2.3,16,8.4,1
2018/9/10 6:58,2.7,16,2.7,16,9.7,16
2018/9/10 6:59,3.2,16,3.2,16,12.1,1
2018/9/10 7:00,3.6,16,3.6,16,9.7,16
2018/9/10 7:01,3.7,16,3.7,16,7.5,15
2018/9/10 7:02,3.9,16,3.9,16,5.7,16
2018/9/10 7:03,4.2,16,4.2,16,9.8,15
2018/9/10 7:04,4.3,16,4.3,16,7.9,16
2018/9/10 7:05,4.4,16,4.4,16,10.9,15
2018/9/10 7:06,4.5,16,4.5,16,9.5,1
2018/9/10 7:07,4.7,16,4.7,16,13.6,16
2018/9/10 7:08,4.9,16,4.9,16,11.5,16
2018/9/10 7:09,4.9,16,4.9,16,13.9,16
2018/9/10 7:10,4.7,16,4.8,16,6.3,3
2018/9/10 7:11,5,1,5,1,10.9,1
2018/9/10 7:12,5.4,1,5.4,1,9.8,1
2018/9/10 7:13,5.4,1,5.4,1,9.7,2
2018/9/10 7:14,5.8,1,5.8,1,13.5,16
2018/9/10 7:15,5.8,1,5.9,1,12.3,15
2018/9/10 7:16,5.6,1,5.7,1,5.1,15
2018/9/10 7:17,5.3,1,5.6,1,9,3
2018/9/10 7:18,5.4,1,5.5,1,17.2,16
2018/9/10 7:19,5.4,1,5.4,1,14.9,16
2018/9/10 7:20,5.9,1,5.9,1,15.8,16
2018/9/10 7:21,5.6,1,5.9,1,9.7,2
2018/9/10 7:22,5.4,1,5.6,1,9.8,1
2018/9/10 7:23,5.2,1,5.4,1,6.7,2
2018/9/10 7:24,4.8,1,5.2,1,10.3,15
2018/9/10 7:25,5.2,1,5.2,1,14.5,1
2018/9/10 7:26,5.6,1,5.6,1,14.8,16
2018/9/10 7:27,6,1,6,1,14.7,16
2018/9/10 7:28,5.8,1,6,1,12.8,1
2018/9/10 7:29,5.6,1,5.9,1,13.1,16
2018/9/10 7:30,5.2,1,5.6,1,9.3,15
2018/9/10 7:31,5.5,1,5.5,1,11.4,16
2018/9/10 7:32,5.9,1,5.9,1,11.6,2
2018/9/10 7:33,6.4,1,6.4,1,14.1,15
2018/9/10 7:34,6.7,16,6.7,16,16.6,16
2018/9/10 7:35,6.7,16,6.7,16,14,15
2018/9/10 7:36,6.8,16,6.8,16,14.4,16
2018/9/10 7:37,6.8,16,6.8,16,13.3,16
2018/9/10 7:38,6.9,16,7,16,14.2,16
2018/9/10 7:39,7.4,16,7.4,16,14.9,16
2018/9/10 7:40,7.7,16,7.7,16,14.2,1
2018/9/10 7:41,7.9,16,7.9,16,16.1,16
2018/9/10 7:42,7.9,16,7.9,16,14.9,1
2018/9/10 7:43,7.9,16,8,16,18.8,16
2018/9/10 7:44,8.1,16,8.1,16,15.9,1
2018/9/10 7:45,8.2,16,8.2,16,16,1
2018/9/10 7:46,8.2,16,8.2,16,12.8,15
2018/9/10 7:47,8.5,16,8.5,16,20.5,1
2018/9/10 7:48,9,16,9,16,20.2,16
2018/9/10 7:49,9,16,9.1,16,16.9,1
2018/9/10 7:50,9.1,16,9.1,16,15.7,16
2018/9/10 7:51,9.3,16,9.3,16,18.7,1
2018/9/10 7:52,9.5,16,9.5,16,16.7,15
2018/9/10 7:53,9.5,16,9.6,16,16.1,16
2018/9/10 7:54,9.7,16,9.8,16,17,16
2018/9/10 7:55,9.4,16,9.6,16,15,1
2018/9/10 7:56,9.9,16,9.9,16,18.1,16
2018/9/10 7:57,9.7,16,9.9,16,15.6,16
2018/9/10 7:58,9.5,16,9.6,16,18.3,1
2018/9/10 7:59,9.7,16,9.7,16,16.5,16
2018/9/10 8:00,9.8,16,9.9,16,19,1
2018/9/10 8:01,9.9,16,9.9,16,17.9,15
2018/9/10 8:02,10.2,16,10.2,16,18.5,2
2018/9/10 8:03,10.7,16,10.7,16,19.7,16
2018/9/10 8:04,10.5,16,10.7,16,16.7,1
2018/9/10 8:05,11.1,16,11.1,16,22.8,1
2018/9/10 8:06,11,16,11.2,16,19.6,1
2018/9/10 8:07,10.8,16,11,16,12.7,15
2018/9/10 8:08,10.5,16,10.8,16,10.9,16
2018/9/10 8:09,10.4,16,10.6,16,15.9,16
2018/9/10 8:10,10.7,16,10.7,16,19.9,16
2018/9/10 8:11,10.8,16,10.8,16,17.9,1
2018/9/10 8:12,10.9,16,10.9,16,21.5,16
2018/9/10 8:13,10.7,16,10.9,16,21,16
2018/9/10 8:14,10.8,16,10.9,16,17.6,16
2018/9/10 8:15,10.7,16,10.8,16,17.7,16
2018/9/10 8:16,10.7,16,10.7,16,18.1,15
2018/9/10 8:17,11,16,11,16,17.8,16
2018/9/10 8:18,11.4,16,11.4,16,16.3,16
2018/9/10 8:19,11.2,16,11.3,16,17.7,16
2018/9/10 8:20,11,16,11.1,16,18.9,1
2018/9/10 8:21,11,16,11.2,16,19.3,16
2018/9/10 8:22,10.6,16,11.1,16,20.3,16
2018/9/10 8:23,10.4,16,10.6,16,19,1
2018/9/10 8:24,10.8,16,10.8,16,21.9,16
2018/9/10 8:25,10.6,16,10.8,16,17.4,16
2018/9/10 8:26,10.6,16,10.7,16,17.8,16
2018/9/10 8:27,10.8,16,10.8,16,21.1,16
2018/9/10 8:28,11,16,11,16,22.1,16
2018/9/10 8:29,11.3,16,11.3,16,21.6,16
2018/9/10 8:30,11.2,16,11.4,16,17.1,16
2018/9/10 8:31,11.3,16,11.5,16,19.9,16
2018/9/10 8:32,11.3,16,11.5,16,17.1,15
2018/9/10 8:33,11.3,16,11.4,16,17,16
2018/9/10 8:34,11.1,16,11.2,16,19.8,16
2018/9/10 8:35,11.4,16,11.4,16,21.5,16
2018/9/10 8:36,11.4,16,11.6,16,21.1,1
2018/9/10 8:37,11.3,16,11.4,16,18,16
2018/9/10 8:38,11.1,16,11.2,16,20.5,16
2018/9/10 8:39,11.1,16,11.2,16,18.5,16
2018/9/10 8:40,11.6,16,11.6,16,25.2,16
2018/9/10 8:41,11.8,16,11.8,16,22,16
2018/9/10 8:42,12,16,12,16,19.6,16
2018/9/10 8:43,12,16,12,16,19.8,16
2018/9/10 8:44,12.3,16,12.3,16,23.8,1
2018/9/10 8:45,12.4,16,12.5,16,25.9,16
2018/9/10 8:46,12.7,16,12.7,16,20.7,1
2018/9/10 8:47,12.5,16,12.8,16,15.6,16
2018/9/10 8:48,12.3,16,12.5,16,16.5,14
2018/9/10 8:49,12.6,16,12.6,16,21.5,16
2018/9/10 8:50,12.2,16,12.6,16,20.1,16
2018/9/10 8:51,11.9,16,12.1,16,19.5,16
2018/9/10 8:52,11.9,16,11.9,16,21.1,16
2018/9/10 8:53,12.1,16,12.1,16,17.9,16
2018/9/10 8:54,11.7,16,12.1,16,19.8,16
2018/9/10 8:55,11.6,16,11.7,16,19.3,16
2018/9/10 8:56,11.4,16,11.7,16,22,16
2018/9/10 8:57,11.8,16,11.8,16,21.1,15
2018/9/10 8:58,12.1,16,12.1,16,20.4,16
2018/9/10 8:59,12,16,12.1,16,21.5,1
2018/9/10 9:00,12.1,16,12.1,16,24,15
2018/9/10 9:01,12.2,16,12.3,16,20.5,1
2018/9/10 9:02,12.1,16,12.3,16,20.7,1
2018/9/10 9:03,11.9,16,12.2,16,18.1,16
2018/9/10 9:04,11.8,16,11.8,16,16.7,15
2018/9/10 9:05,11.6,16,11.8,16,22.6,1
2018/9/10 9:06,11.9,16,11.9,16,23.3,16
2018/9/10 9:07,11.7,16,11.9,16,18.1,16
2018/9/10 9:08,11.4,16,11.7,16,17.7,1
2018/9/10 9:09,11.5,16,11.5,16,22.8,16
2018/9/10 9:10,11.4,16,11.6,16,21.1,16
2018/9/10 9:11,11.6,16,11.6,16,24.4,15
2018/9/10 9:12,11.9,16,11.9,16,22.4,1
2018/9/10 9:13,11.9,16,11.9,16,19.3,1
2018/9/10 9:14,12.2,16,12.3,16,21.5,16
2018/9/10 9:15,12.5,16,12.5,16,21.3,16
2018/9/10 9:16,12.2,16,12.4,16,17.8,15
2018/9/10 9:17,12.4,16,12.4,16,22.1,16
2018/9/10 9:18,12.6,16,12.6,16,16.8,15
2018/9/10 9:19,12,16,12.6,16,17.1,16
2018/9/10 9:20,11.9,16,12,16,17.2,16
2018/9/10 9:21,11.8,16,12,16,21.9,16
2018/9/10 9:22,11.5,16,11.8,16,27.6,16
2018/9/10 9:23,11.8,16,11.8,16,25.1,1
2018/9/10 9:24,11.7,16,12,16,20.5,1
2018/9/10 9:25,11.6,16,11.8,16,21.2,16
2018/9/10 9:26,12,16,12.2,16,28.4,16
2018/9/10 9:27,12,16,12,16,24.1,16
2018/9/10 9:28,12.3,16,12.3,16,25.3,1
2018/9/10 9:29,12.6,16,12.6,16,18.8,15
2018/9/10 9:30,13.2,16,13.2,16,27.7,16
2018/9/10 9:31,13.1,16,13.2,16,22.2,1
2018/9/10 9:32,13.1,16,13.2,16,18.8,16
2018/9/10 9:33,13.2,16,13.3,16,23.3,1
2018/9/10 9:34,13,16,13.1,16,21.9,16
2018/9/10 9:35,13,16,13.1,16,21.5,1
2018/9/10 9:36,12.9,16,13.1,16,22.2,16
2018/9/10 9:37,13.2,16,13.3,16,26,15
2018/9/10 9:38,12.9,16,13.3,16,20.5,1
2018/9/10 9:39,13,16,13.2,16,23.8,16
2018/9/10 9:40,12.8,16,13.1,16,24.3,16
2018/9/10 9:41,13.3,16,13.3,16,26.5,16
2018/9/10 9:42,13.1,16,13.2,16,22,16
2018/9/10 9:43,13.1,16,13.1,16,25.4,16
2018/9/10 9:44,13.1,16,13.2,16,19.7,1
2018/9/10 9:45,13.2,16,13.3,16,22.6,16
2018/9/10 9:46,13,16,13.2,16,21.3,1
2018/9/10 9:47,12.6,16,12.9,16,17.9,16
2018/9/10 9:48,12.8,16,12.9,16,24.1,16
2018/9/10 9:49,12.7,16,12.8,16,26.3,16
2018/9/10 9:50,12.9,16,12.9,16,22.1,1
2018/9/10 9:51,12.4,16,12.9,16,19.7,15
2018/9/10 9:52,12.3,16,12.5,16,19.9,15
2018/9/10 9:53,12.4,16,12.4,16,22.1,15
2018/9/10 9:54,12.5,16,12.5,16,22.9,1
2018/9/10 9:55,12.3,16,12.6,16,22.9,1
2018/9/10 9:56,12.3,16,12.4,16,19.6,15
2018/9/10 9:57,12.2,16,12.4,16,16,15
2018/9/10 9:58,12.2,16,12.4,16,19.5,1
2018/9/10 9:59,12,16,12.2,16,21.6,1
2018/9/10 10:00,11.5,16,12,16,18,16
2018/9/10 10:01,11.1,16,11.4,16,20.3,16
2018/9/10 10:02,11.3,16,11.4,16,23.6,15
2018/9/10 10:03,11.7,16,11.8,16,28.8,16
2018/9/10 10:04,11.5,16,11.7,16,18.9,1
2018/9/10 10:05,11.4,16,11.6,16,17.9,1
2018/9/10 10:06,11.3,16,11.4,16,22.2,2
2018/9/10 10:07,11.9,16,11.9,16,25.6,16
2018/9/10 10:08,12.1,16,12.1,16,22.2,1
2018/9/10 10:09,12.2,16,12.3,16,22.1,3
2018/9/10 10:10,12.7,16,12.7,16,25.7,16
2018/9/10 10:11,13.1,16,13.1,16,21.8,1
2018/9/10 10:12,13.2,16,13.2,16,20.5,16
2018/9/10 10:13,13,16,13.2,16,23.8,15
2018/9/10 10:14,13.2,16,13.2,16,26.9,1
2018/9/10 10:15,13.2,16,13.2,16,20.2,16
2018/9/10 10:16,13.2,16,13.4,16,23.9,1
2018/9/10 10:17,12.6,16,13.1,16,21.6,15
2018/9/10 10:18,12.7,16,12.8,16,25.1,16
2018/9/10 10:19,12.1,16,12.6,16,13.2,16
2018/9/10 10:20,12.2,16,12.2,16,27.2,16
2018/9/10 10:21,12.2,16,12.3,16,30.1,1
2018/9/10 10:22,12.3,16,12.3,16,30.9,1
2018/9/10 10:23,12.3,16,12.4,16,22.9,2
2018/9/10 10:24,12.4,16,12.4,16,27.9,15
2018/9/10 10:25,12.7,16,12.7,16,22.8,16
2018/9/10 10:26,12.9,16,12.9,16,22.3,1
2018/9/10 10:27,13.4,16,13.5,16,24,1
2018/9/10 10:28,13.3,16,13.5,16,24.6,16
2018/9/10 10:29,14,16,14,16,21.1,1
2018/9/10 10:30,13.8,16,14.1,16,20.2,15
2018/9/10 10:31,13.8,16,13.8,16,18.1,16
2018/9/10 10:32,14,16,14,16,27.6,1
2018/9/10 10:33,13.5,16,13.9,16,21.3,2
2018/9/10 10:34,13.4,16,13.4,16,27.2,1
2018/9/10 10:35,13.5,16,13.5,16,22.6,1
2018/9/10 10:36,13.2,16,13.6,16,22.1,16
2018/9/10 10:37,13.2,16,13.4,16,27.1,2
2018/9/10 10:38,12.9,16,13.1,16,22.4,16
2018/9/10 10:39,13.1,16,13.1,16,24.5,16
2018/9/10 10:40,12.7,16,13,16,19.6,16
2018/9/10 10:41,12.6,16,12.8,16,18.3,16
2018/9/10 10:42,12.5,16,12.6,16,23.9,16
2018/9/10 10:43,12.4,16,12.5,16,19.6,1
2018/9/10 10:44,12.2,16,12.6,16,23.5,1
2018/9/10 10:45,11.6,16,12.1,16,19.8,1
2018/9/10 10:46,12,16,12,16,23.5,16
2018/9/10 10:47,11.5,16,11.9,16,17.6,16
2018/9/10 10:48,11.7,16,11.7,16,20.7,16
2018/9/10 10:49,11.3,16,11.7,16,25.7,1
2018/9/10 10:50,11.4,16,11.4,16,20.3,1
2018/9/10 10:51,11.7,16,11.7,16,27.7,1
2018/9/10 10:52,11.8,16,11.8,16,25.2,1
2018/9/10 10:53,11.9,16,11.9,16,18.6,1
2018/9/10 10:54,12.1,16,12.1,16,26.2,16
2018/9/10 10:55,12.4,16,12.5,16,20.7,15
2018/9/10 10:56,11.9,16,12.4,16,22,16
2018/9/10 10:57,11.9,16,12,16,17.7,16
2018/9/10 10:58,11.7,16,11.9,16,20.7,2